FW2350 Weather Reports


time (UTC)temp
F
wind
direction
speed
knots
gust
knots
rain 1hr
in
rain 24hr
in
rain mn
in
humidity
%
barometer
mb
20260508033330 47 176 0.9 3.5 0.00 0.00 0.00 88 1015.0
20260508030323 47 177 0.0 0.9 0.00 0.00 0.00 86 1015.1
20260508023316 47 177 0.0 1.7 0.00 0.00 0.00 86 1015.2
20260508020331 48 177 0.0 0.0 0.00 0.00 0.00 85 1015.1
20260508013325 48 177 0.0 0.9 0.00 0.00 0.00 85 1015.2
20260508010318 49 177 0.0 0.0 0.00 0.00 0.00 83 1015.3
20260508003332 50 177 0.0 0.9 0.00 0.00 0.00 81 1015.2
20260508000327 50 177 1.7 3.5 0.00 0.00 0.00 80 1015.3
20260507233337 50 178 3.5 5.2 0.00 0.00 0.00 82 1015.4
20260507230351 50 185 1.7 4.3 0.00 0.00 0.00 86 1015.5
20260507223324 51 240 0.0 1.7 0.00 0.00 0.00 87 1015.4
20260507220319 51 240 0.0 0.0 0.00 0.00 0.00 87 1015.4
20260507213313 52 240 0.9 1.7 0.00 0.00 0.00 85 1015.3
20260507210328 53 240 0.9 1.7 0.00 0.00 0.00 83 1015.1
20260507203343 53 241 0.9 1.7 0.00 0.00 0.00 82 1015.0
20260507200317 53 240 0.0 0.0 0.00 0.00 0.00 80 1014.6
20260507193313 55 240 0.9 1.7 0.00 0.00 0.00 76 1014.3
20260507190323 55 240 0.9 2.6 0.00 0.00 0.00 73 1014.3
20260507183316 56 248 0.9 4.3 0.00 0.00 0.00 68 1014.2
20260507180330 57 279 0.9 4.3 0.00 0.00 0.00 65 1014.0
20260507173346 58 223 3.5 6.1 0.00 0.00 0.00 60 1013.9
20260507170340 58 230 1.7 7.0 0.00 0.00 0.00 58 1014.0
20260507163313 58 182 2.6 6.1 0.00 0.00 0.00 55 1014.1
20260507160328 59 185 4.3 6.1 0.00 0.00 0.00 54 1014.1
20260507153322 59 174 0.9 6.1 0.00 0.00 0.00 54 1014.0
20260507150353 61 190 2.6 7.8 0.00 0.00 0.00 54 1014.2
20260507143327 60 158 1.7 6.1 0.00 0.00 0.00 53 1014.3
20260507140322 60 167 2.6 5.2 0.00 0.00 0.00 51 1014.6
20260507133316 60 128 2.6 4.3 0.00 0.00 0.00 52 1014.7
20260507130330 59 138 3.5 6.1 0.00 0.00 0.00 53 1014.8
20260507123325 61 249 3.5 7.0 0.00 0.00 0.00 57 1014.9
20260507120319 58 236 3.5 7.0 0.00 0.00 0.00 60 1015.1
20260507113334 57 169 3.5 5.2 0.00 0.00 0.00 60 1015.1
20260507110327 56 182 2.6 4.3 0.00 0.00 0.00 64 1015.4
20260507103337 53 173 4.3 7.0 0.00 0.00 0.00 72 1015.7
20260507100330 52 126 3.5 6.1 0.00 0.00 0.00 76 1015.8
20260507093325 51 130 2.6 5.2 0.00 0.00 0.00 80 1015.7
20260507090318 50 148 2.6 5.2 0.00 0.00 0.00 87 1015.7
20260507083313 48 140 2.6 5.2 0.00 0.00 0.00 91 1015.8
20260507080328 46 107 0.9 3.5 0.00 0.00 0.00 93 1015.7
20260507073322 45 32 0.0 1.7 0.00 0.00 0.00 94 1015.6
20260507070317 44 32 0.0 0.9 0.00 0.00 0.00 94 1015.4
20260507063348 42 32 0.0 0.0 0.00 0.00 0.00 95 1015.4
20260507060321 41 32 0.0 0.9 0.00 0.00 0.00 94 1015.4
20260507053335 37 40 0.0 0.9 0.00 0.00 0.00 95 1015.2
20260507050328 36 32 0.0 0.9 0.00 0.00 0.00 93 1015.2
20260507043323 38 32 0.0 1.7 0.00 0.00 0.00 93 1015.1
20260507040316 39 32 0.0 0.9 0.00 0.00 0.00 93 1015.1